Temperature
18 17 17 17 17 17 17 17 17 17 16 16 16 16 16 16 15 15 15 15 15 15 15 15 15 15 15 15 14 14 15 14 14 14 14 14 14 14 14 14 14 14 14
19 17 17 17 17 17 17 17 17 16 16 16 16 16 16 16 15 15 15 15 15 15 15 15 15 15 15 15 15 15 14 14 14 14 14 14 14 14 14 14 14 14 14
19 17 17 17 17 17 17 17 17 16 16 16 16 16 16 15 15 15 15 15 16 16 15 15 15 15 15 15 15 15 15 14 14 14 14 14 14 14 14 14 14 14 14
19 17 17 17 17 17 17 17 17 16 16 16 16 16 16 16 15 15 15 15 16 16 16 16 15 15 15 15 15 15 15 14 14 14 14 14 14 14 14 14 14 14 14
19 18 17 17 17 17 17 17 17 16 16 16 16 16 16 16 15 15 15 16 16 16 16 15 15 15 15 15 15 15 14 14 14 14 14 14 14 14 14 14 14 14 14
18 18 17 17 17 17 17 17 17 16 16 16 16 16 16 16 16 16 15 16 16 16 16 15 15 15 15 15 15 15 14 14 14 14 14 14 14 14 14 14 14 14 14
18 18 17 16 16 17 17 17 16 16 16 16 16 16 16 16 16 16 16 16 16 16 15 15 15 15 15 15 15 14 14 14 14 14 14 14 14 14 14 14 14 14 14
18 17 17 16 16 16 16 16 16 16 17 17 16 17 17 16 16 16 16 16 16 16 15 15 15 15 15 15 15 15 14 14 14 14 14 14 14 14 14 14 14 14 14
17 17 16 16 16 16 16 16 16 16 16 17 17 17 17 16 16 16 16 16 16 16 16 16 15 15 15 15 15 15 14 14 14 14 14 14 14 14 14 14 14 14 14
16 16 16 16 16 16 16 16 16 16 16 16 17 17 17 17 16 16 16 16 16 16 16 16 15 15 15 15 15 15 14 14 14 14 14 14 14 14 14 14 14 14 14
15 16 16 16 16 16 16 16 16 16 16 16 16 17 17 17 16 16 16 16 16 16 16 16 15 15 15 15 15 15 14 14 14 14 14 14 14 14 14 14 14 14 14
15 15 15 16 15 15 16 16 16 16 16 16 16 17 17 17 16 16 16 16 16 16 16 16 15 15 15 15 15 15 14 14 14 14 14 14 13 13 14 14 14 14 14
16 16 15 15 15 15 15 16 16 16 16 16 16 16 17 16 16 16 16 16 16 16 16 16 15 15 15 15 15 15 15 14 14 14 14 13 13 13 13 13 13 13 13
16 16 16 15 15 15 15 15 16 16 16 16 16 17 17 16 16 16 16 16 16 16 16 15 15 15 15 15 15 15 15 14 14 14 13 13 13 13 13 13 13 13 13
16 16 16 16 15 15 15 15 15 16 16 16 16 16 16 16 16 16 16 16 16 15 15 15 15 15 15 15 14 14 14 14 14 14 13 13 13 13 12 12 12 12 12
17 16 16 16 16 15 15 15 15 15 15 15 16 16 16 16 16 16 16 15 15 15 15 15 15 14 14 14 14 14 14 14 14 13 13 13 13 13 12 12 12 12 12
17 17 16 16 16 15 15 15 15 15 15 15 15 15 16 16 16 16 15 15 15 15 15 14 14 14 14 14 14 14 14 13 13 13 13 13 12 12 12 12 12 12 11
17 17 16 16 16 15 15 15 15 15 15 15 15 15 15 15 15 15 15 15 15 14 14 14 14 14 14 14 14 13 13 13 13 13 13 12 12 12 12 12 11 11 11
17 17 16 16 16 15 15 15 15 15 14 14 14 14 15 15 15 15 15 15 14 14 14 14 14 13 13 13 13 13 13 13 13 12 12 12 12 12 12 12 11 11 11
17 16 16 16 16 15 15 15 15 15 14 14 14 14 14 14 14 14 14 14 14 13 13 13 13 13 13 12 12 12 12 12 12 12 12 12 12 12 12 12 11 11 11
16 16 16 16 16 15 15 15 15 15 15 14 14 14 14 14 14 14 14 14 13 13 13 13 12 12 12 12 12 12 12 12 12 12 12 12 12 12 12 12 11 11 11
17 16 16 16 16 15 15 15 15 15 15 15 14 14 14 14 14 14 14 13 13 13 13 12 12 12 12 12 11 11 11 12 13 13 13 12 12 12 12 12 11 11 11
16 16 16 16 16 16 15 15 15 15 14 14 14 14 14 14 14 14 13 13 13 13 13 13 12 12 12 12 11 11 11 11 11 12 12 12 12 12 12 11 11 11 10
16 16 16 16 16 15 15 15 15 15 15 15 14 14 14 14 14 14 13 13 13 13 13 13 12 12 12 11 11 11 11 11 11 11 11 11 11 11 11 11 11 10 10
16 16 16 15 15 15 15 15 15 15 14 14 14 14 14 14 14 13 13 13 13 13 13 13 12 12 12 11 11 11 11 11 10 10 10 10 11 11 10 10 10 10 9
15 15 15 15 15 15 15 15 14 14 14 14 14 14 14 13 13 13 13 13 13 13 13 12 12 12 11 11 11 11 10 10 10 10 10 10 10 10 10 10 9 9 9
Wind_Speed
7 13 21 20 19 19 19 19 19 19 19 18 18 17 17 16 15 15 14 14 14 14 15 16 16 17 17 17 17 17 17 17 16 15 15 14 13 13 13 12 12 12 12
11 17 21 20 20 20 19 19 18 18 17 17 17 16 15 15 14 14 14 14 14 14 15 15 16 17 17 16 16 16 16 16 15 14 14 13 12 12 12 11 11 11 11
14 18 21 21 20 20 19 18 17 17 16 16 16 16 15 14 14 14 14 14 14 14 14 15 16 16 16 15 15 15 14 14 13 12 11 10 9 11 11 11 12 13 13
15 17 19 21 20 20 19 18 17 16 16 15 15 15 14 14 14 14 14 14 14 14 15 15 15 15 15 14 14 14 13 12 11 11 10 9 8 10 11 12 13 13 14
13 16 19 21 21 20 19 18 17 16 15 15 15 14 14 14 14 14 14 14 14 14 15 15 14 14 13 13 13 13 12 12 11 11 10 10 9 11 12 13 13 13 14
11 16 20 21 20 20 19 18 16 15 15 14 14 14 13 13 14 14 14 14 14 14 14 14 13 13 12 12 12 12 12 12 12 11 11 10 10 12 12 12 12 12 12
11 15 20 21 20 20 19 17 16 15 15 14 14 13 13 14 14 14 14 13 13 13 13 12 12 11 11 11 11 12 12 12 11 10 9 9 10 11 11 11 10 10 10
11 13 18 21 21 20 18 17 16 15 14 14 13 13 13 14 14 14 13 13 12 12 12 11 11 10 11 11 11 11 11 10 9 9 8 8 9 9 9 9 9 9 9
9 10 14 18 19 19 18 17 16 15 14 13 13 13 13 14 14 14 13 12 11 11 10 10 9 9 9 9 10 10 10 9 9 8 7 6 7 7 8 8 8 8 8
8 7 10 14 16 16 16 17 17 16 14 13 13 13 14 14 14 13 13 11 10 10 9 9 8 8 8 8 8 9 9 8 7 6 5 5 5 6 6 6 6 7 7
10 8 8 10 12 14 14 15 16 15 14 13 12 13 14 12 12 11 11 11 10 9 8 8 7 7 7 7 7 7 7 6 5 4 3 3 3 4 5 5 5 5 6
13 11 8 9 10 12 12 12 13 12 12 11 12 12 12 11 11 10 11 10 9 8 7 7 6 6 6 5 5 5 5 5 4 4 4 3 3 3 4 4 4 4 4
12 11 10 9 11 11 9 10 10 10 10 10 11 12 11 10 9 8 8 8 8 7 5 5 4 4 4 4 3 3 4 4 4 5 5 5 5 4 4 4 4 4 4
12 12 10 10 9 10 10 10 10 9 9 9 11 12 11 8 7 7 7 7 7 6 5 4 4 3 3 3 3 3 4 5 6 6 7 7 7 6 6 5 5 5 4
13 13 11 11 11 10 9 8 9 9 10 11 11 12 12 9 6 7 6 7 7 7 6 5 4 4 3 3 4 5 5 6 7 8 9 10 10 9 8 8 7 7 6
13 13 11 12 11 11 8 7 8 10 11 11 12 13 14 12 9 7 6 7 8 9 8 7 6 4 3 3 4 6 7 8 9 10 11 12 12 12 11 11 10 10 9
11 11 11 12 11 11 10 9 9 11 11 10 12 14 14 14 12 10 7 6 9 10 9 6 5 3 3 3 4 6 7 8 9 11 13 13 13 14 14 14 13 12 12
9 9 10 10 11 11 9 9 9 10 11 11 12 13 15 15 14 11 7 7 11 10 8 5 3 3 3 3 4 4 5 7 9 11 12 14 14 15 16 17 16 15 15
9 9 9 9 10 10 9 8 8 9 10 10 11 12 14 15 15 12 9 9 11 9 7 5 4 4 4 5 5 4 4 5 7 9 10 14 16 16 17 18 18 18 17
7 8 8 8 8 8 7 5 4 5 5 8 9 11 13 13 15 13 10 10 10 6 5 5 6 5 4 4 4 4 5 5 6 6 9 12 15 17 18 18 18 18 19
5 6 7 7 7 7 5 5 5 5 5 5 6 10 11 12 13 12 8 7 8 7 8 8 6 5 5 3 2 3 4 6 7 6 8 8 10 14 15 16 16 16 16
5 6 7 7 7 7 6 5 3 4 4 5 4 7 9 10 11 11 9 6 7 7 8 8 6 4 4 5 4 2 4 4 5 6 5 6 7 8 10 13 14 15 15
4 6 6 7 6 6 6 4 3 3 2 2 3 4 5 8 9 10 9 8 7 8 8 9 9 8 6 6 6 5 4 6 4 3 3 4 4 4 5 8 11 13 13
5 4 5 5 5 5 6 6 6 6 5 5 4 4 3 5 6 7 7 8 7 7 8 8 9 8 7 6 5 6 6 4 4 4 2 2 3 4 4 5 7 9 11
3 3 3 4 3 3 4 6 6 5 4 3 2 3 3 3 3 4 5 4 5 5 7 7 7 8 8 8 6 5 6 5 5 5 6 3 2 2 2 2 4 5 7
2 3 3 4 3 3 4 4 5 6 5 4 3 3 3 2 2 2 3 3 3 4 5 6 6 7 7 8 7 6 5 4 5 6 9 6 5 2 1 1 2 3 5
Wind_Direction
167 163 158 155 150 144 138 133 129 126 123 121 118 115 113 112 110 107 103 101 99 96 95 95 97 96 94 92 91 90 87 84 82 81 80 81 83 84 82 78 73 72 75
152 160 157 156 152 147 142 136 132 129 126 124 122 119 118 117 114 112 107 106 102 99 99 99 98 97 96 95 94 93 90 86 84 81 77 77 82 85 85 83 79 76 76
148 157 156 157 153 149 144 140 137 134 131 129 127 125 123 122 119 116 111 108 104 101 101 102 100 97 98 98 97 95 94 90 86 81 75 75 84 88 87 86 82 76 74
148 154 155 156 154 150 147 144 142 139 137 134 132 130 127 126 124 119 115 111 108 105 105 104 102 100 99 99 97 96 96 91 85 79 72 69 80 90 89 85 80 74 72
146 151 155 155 154 151 149 147 145 143 141 139 137 134 133 131 128 124 119 115 114 111 110 108 106 103 102 101 100 99 97 92 86 80 75 74 77 86 86 82 79 75 73
142 148 155 154 154 152 151 150 149 147 145 141 141 140 139 138 134 128 124 120 119 118 117 114 109 106 104 104 104 103 101 97 92 83 76 74 80 86 85 83 80 76 74
144 149 155 154 154 152 152 152 150 149 147 145 144 144 144 142 139 134 129 128 127 126 123 120 114 110 108 109 107 107 106 103 97 88 80 78 84 85 86 84 81 77 75
146 148 155 154 153 153 154 153 151 149 149 149 150 149 147 145 142 140 137 135 135 133 130 127 121 115 112 112 111 112 112 107 104 95 88 84 90 87 86 85 84 81 79
139 144 151 153 153 154 155 153 151 150 150 152 154 153 150 148 146 147 146 144 141 139 136 133 129 122 117 115 116 116 115 115 113 106 97 93 97 94 92 92 88 86 85
138 142 147 151 153 154 155 155 153 153 153 154 153 151 149 148 150 152 153 152 148 145 143 141 136 129 121 118 120 121 122 122 119 116 113 112 106 101 100 98 94 91 89
157 154 150 150 151 152 154 157 155 155 154 151 149 150 149 149 151 154 157 157 154 151 151 149 142 131 122 118 121 126 130 134 134 136 143 146 131 118 114 110 105 101 98
172 171 163 157 155 155 157 154 153 153 153 151 150 150 150 152 154 158 162 163 162 158 157 156 146 131 125 121 120 131 140 154 163 175 191 191 178 156 141 136 129 123 116
176 176 173 167 162 158 153 154 153 153 154 155 157 156 154 152 154 157 160 164 163 160 156 154 140 135 135 142 144 151 167 180 196 208 216 218 214 200 182 173 167 159 149
179 183 178 171 165 162 157 161 160 159 161 165 169 167 161 157 159 164 169 170 170 171 168 164 159 160 163 175 187 195 202 210 218 225 230 229 228 224 214 202 198 193 186
186 187 183 177 173 168 162 165 169 172 176 178 179 179 177 171 172 176 180 183 186 187 189 188 189 193 207 216 218 219 226 231 235 235 236 235 233 230 228 221 216 212 208
192 191 186 183 179 173 172 172 178 182 184 184 187 189 188 185 183 184 188 194 200 203 205 206 208 208 221 229 236 232 234 239 242 239 238 239 236 232 231 231 228 223 221
195 191 188 188 181 179 179 181 185 188 186 189 195 197 195 193 192 192 194 202 212 212 209 210 217 219 230 236 245 242 237 239 240 239 238 238 238 236 233 235 234 230 227
189 190 190 190 184 185 184 184 186 189 190 196 198 199 201 201 199 195 198 210 216 211 204 201 199 214 232 237 248 250 242 241 240 240 238 237 236 235 235 236 236 235 232
188 186 188 188 184 188 187 187 189 189 194 199 199 200 204 205 204 201 205 213 211 206 206 208 206 203 223 233 241 250 248 240 241 239 236 236 235 235 235 236 237 236 234
185 183 185 186 185 184 183 178 182 189 195 196 198 202 204 206 206 205 209 211 204 202 209 210 213 209 216 223 240 257 255 247 239 232 234 237 236 236 236 237 237 238 236
174 177 183 184 180 173 175 181 186 198 196 196 201 205 204 204 203 203 209 206 202 209 214 209 205 212 220 191 211 281 274 246 240 236 231 232 236 237 236 236 236 236 237
183 179 178 184 180 182 188 182 176 171 188 197 198 205 208 208 206 206 206 205 204 211 215 209 200 197 206 182 183 217 286 303 264 240 229 232 238 236 236 237 236 236 236
194 189 186 186 184 187 182 160 136 132 126 166 196 205 210 210 210 210 211 210 207 209 218 214 206 205 217 209 200 194 213 241 282 279 238 236 237 230 236 238 236 237 237
204 191 184 181 180 183 176 173 176 186 198 200 196 200 203 205 207 211 212 211 211 212 218 218 211 212 212 221 214 224 227 206 223 278 271 246 235 237 239 236 238 237 236
187 176 172 162 164 169 172 182 185 196 204 190 177 183 201 209 211 213 214 212 216 218 222 221 215 216 218 223 213 205 225 233 229 241 265 260 256 243 242 240 240 239 235
144 138 140 139 140 145 156 164 179 190 190 185 190 195 206 215 216 223 226 224 227 227 228 230 225 222 226 228 225 211 203 204 211 220 244 245 246 240 225 246 249 247 238
Height
1523 1527 1531 1534 1537 1540 1543 1545 1546 1548 1549 1550 1551 1552 1552 1553 1553 1554 1554 1555 1555 1555 1556 1557 1558 1558 1559 1560 1561 1562 1562 1563 1564 1564 1565 1565 1566 1566 1566 1566 1566 1566 1566
1522 1526 1531 1534 1538 1541 1543 1545 1547 1549 1550 1551 1552 1553 1553 1554 1555 1555 1556 1556 1557 1557 1558 1558 1559 1560 1561 1562 1563 1563 1564 1565 1566 1566 1567 1567 1568 1568 1569 1569 1568 1568 1568
1522 1526 1531 1535 1538 1541 1544 1546 1548 1550 1551 1552 1553 1553 1554 1555 1556 1557 1557 1558 1558 1559 1559 1560 1561 1562 1563 1564 1565 1565 1566 1567 1568 1568 1569 1570 1570 1570 1571 1571 1571 1571 1571
1522 1526 1531 1535 1539 1542 1544 1547 1549 1550 1551 1553 1554 1554 1555 1556 1557 1558 1559 1560 1560 1561 1561 1562 1563 1564 1565 1566 1567 1567 1568 1569 1570 1570 1571 1572 1572 1572 1573 1573 1573 1573 1573
1523 1527 1531 1535 1539 1542 1545 1547 1549 1551 1552 1553 1554 1555 1556 1557 1558 1560 1561 1561 1562 1563 1563 1564 1565 1566 1567 1568 1569 1570 1570 1571 1572 1572 1573 1574 1574 1574 1575 1575 1575 1574 1574
1524 1528 1532 1536 1539 1542 1545 1547 1549 1551 1553 1554 1555 1556 1557 1558 1559 1561 1562 1563 1564 1565 1565 1566 1567 1568 1569 1570 1571 1572 1573 1573 1574 1574 1575 1575 1575 1576 1576 1576 1576 1575 1575
1524 1528 1532 1536 1540 1543 1545 1548 1550 1551 1553 1554 1555 1557 1558 1559 1560 1562 1563 1564 1565 1566 1567 1568 1569 1570 1571 1572 1573 1574 1574 1575 1576 1576 1577 1577 1577 1577 1577 1577 1577 1576 1575
1525 1529 1533 1537 1540 1543 1546 1548 1550 1552 1553 1555 1556 1557 1558 1560 1561 1563 1564 1565 1566 1567 1568 1569 1570 1572 1573 1574 1574 1575 1576 1577 1577 1578 1578 1578 1578 1578 1578 1577 1577 1576 1576
1527 1530 1533 1537 1540 1543 1546 1548 1550 1552 1554 1555 1557 1558 1559 1560 1562 1564 1565 1566 1568 1569 1570 1571 1572 1573 1574 1575 1576 1576 1577 1578 1578 1578 1579 1579 1579 1579 1578 1578 1577 1576 1576
1527 1531 1534 1537 1540 1543 1546 1548 1550 1552 1554 1555 1557 1558 1560 1561 1563 1564 1566 1567 1568 1570 1571 1572 1573 1574 1575 1575 1576 1577 1578 1578 1579 1579 1579 1579 1579 1579 1579 1578 1578 1577 1576
1528 1531 1534 1537 1540 1543 1546 1548 1550 1552 1554 1555 1557 1558 1560 1561 1563 1564 1566 1568 1569 1570 1571 1572 1573 1574 1575 1576 1577 1577 1578 1579 1579 1580 1580 1580 1579 1579 1579 1578 1578 1577 1577
1526 1530 1533 1536 1539 1542 1545 1547 1549 1551 1553 1555 1557 1558 1560 1561 1563 1565 1566 1568 1569 1570 1571 1572 1573 1574 1575 1576 1577 1578 1578 1579 1579 1580 1580 1580 1579 1579 1579 1578 1578 1577 1577
1526 1529 1532 1535 1538 1541 1543 1546 1548 1550 1552 1554 1556 1558 1559 1561 1562 1564 1566 1567 1569 1570 1571 1572 1573 1574 1575 1576 1576 1577 1578 1578 1579 1579 1579 1579 1579 1579 1579 1578 1578 1577 1577
1525 1528 1531 1534 1537 1540 1542 1545 1547 1549 1551 1553 1555 1557 1558 1560 1562 1563 1565 1567 1568 1569 1571 1572 1573 1573 1574 1575 1575 1576 1577 1577 1578 1578 1578 1578 1578 1578 1578 1578 1577 1577 1576
1524 1526 1529 1532 1535 1538 1541 1543 1546 1548 1550 1552 1554 1555 1557 1559 1561 1562 1564 1565 1567 1568 1570 1571 1571 1572 1573 1573 1574 1575 1575 1576 1576 1576 1577 1577 1577 1577 1577 1577 1576 1576 1575
1522 1525 1528 1530 1533 1536 1539 1541 1544 1546 1549 1550 1552 1554 1556 1557 1559 1561 1562 1564 1565 1567 1568 1569 1570 1570 1571 1572 1572 1573 1573 1574 1574 1574 1575 1575 1575 1575 1575 1575 1575 1574 1574
1521 1523 1526 1529 1531 1534 1537 1540 1542 1545 1547 1548 1550 1552 1554 1555 1557 1559 1560 1562 1564 1565 1566 1567 1568 1568 1569 1569 1570 1570 1571 1571 1571 1572 1572 1572 1573 1573 1573 1573 1573 1572 1572
1519 1522 1524 1527 1529 1532 1535 1538 1540 1543 1545 1546 1548 1550 1551 1553 1555 1556 1558 1559 1561 1562 1563 1564 1565 1565 1566 1566 1567 1568 1568 1568 1568 1568 1569 1569 1569 1569 1570 1570 1570 1570 1569
1517 1520 1522 1525 1527 1530 1533 1536 1538 1540 1542 1544 1546 1547 1549 1550 1552 1553 1555 1557 1558 1559 1560 1561 1561 1562 1563 1563 1564 1564 1564 1564 1564 1564 1564 1565 1565 1565 1565 1566 1566 1566 1566
1515 1517 1520 1523 1525 1528 1531 1533 1535 1537 1539 1541 1543 1544 1546 1547 1549 1550 1552 1553 1555 1555 1556 1557 1558 1559 1559 1560 1560 1559 1559 1559 1559 1559 1560 1560 1560 1560 1561 1561 1561 1561 1561
1511 1514 1517 1519 1522 1525 1527 1529 1531 1533 1535 1537 1539 1541 1543 1544 1546 1547 1548 1549 1550 1551 1552 1553 1554 1554 1555 1556 1555 1555 1554 1554 1554 1554 1555 1555 1555 1555 1555 1556 1556 1556 1556
1508 1511 1513 1516 1519 1521 1524 1526 1528 1530 1532 1534 1536 1537 1539 1540 1542 1543 1544 1545 1546 1547 1548 1549 1549 1550 1550 1551 1551 1551 1549 1549 1548 1549 1549 1549 1550 1550 1550 1550 1551 1551 1551
1505 1508 1510 1513 1515 1518 1520 1522 1524 1526 1527 1529 1531 1533 1534 1536 1537 1538 1539 1540 1541 1542 1543 1544 1544 1545 1545 1546 1547 1547 1546 1543 1543 1543 1543 1544 1544 1544 1545 1545 1545 1545 1545
1502 1505 1507 1510 1512 1514 1516 1518 1519 1521 1522 1524 1526 1528 1530 1531 1532 1533 1534 1535 1536 1536 1537 1538 1539 1539 1539 1539 1540 1541 1541 1540 1539 1537 1538 1538 1539 1539 1539 1539 1539 1539 1539
1498 1501 1503 1505 1508 1510 1512 1513 1515 1517 1518 1520 1522 1523 1524 1526 1527 1528 1529 1529 1530 1530 1531 1532 1532 1533 1533 1533 1534 1534 1534 1534 1534 1533 1531 1532 1532 1533 1533 1533 1533 1532 1532
1493 1496 1498 1501 1503 1505 1507 1509 1510 1512 1514 1515 1517 1518 1519 1520 1521 1522 1523 1523 1524 1524 1525 1525 1526 1526 1526 1527 1527 1527 1528 1528 1527 1527 1525 1524 1525 1526 1526 1526 1526 1526 1526